Back to catalog

FENGYUN 1C DEB

AliveSSO
NORAD 30134·DEBRIS·🇨🇳 China

Launched May 10, 1999 from Taiyuan Satellite Launch Center

Loading…

Next Passes (next 24 hours)

TLE

FreshSource: Space-Track

Epoch: Sep 14, 2026, 12:47 UTC

1 30134U 99025SP  26257.53286631  .00000490  00000-0  28107-3 0  9996
2 30134  98.6801 273.6408 0019956 117.8015  44.4515 14.13770465 11393

Track FENGYUN 1C DEB in real time with AllMySat

Download on the App Store